Location: *
(51.0333°S, 178.4667°E)
Time: 23:38:34
(UTC+00:00)

Abrixas rocket - Pass Details

Date: 15 November 2019
Orbit: 358 x 366 km, 48.4° (Epoch: 07 December)

Event Time Altitude Azimuth Distance (km) Brightness Sun altitude
Rises 10:32:53 0° 267° (W) 2,237 6.2 -18.4°
Reaches altitude 10° 10:35:02 10° 276° (W) 1,382 5.0 -18.5°
Enters shadow 10:36:25 21° 291° (WNW) 897 3.9 -18.6°
